Location: Newark
(60.0000°N, 100.0000°E)
Time: 21:10:42
(UTC+00:00)

N. Korean satellite - Pass Details

Date: 26 November 2019
Orbit: 456 x 506 km, 97.2° (Epoch: 09 December)

Event Time Altitude Azimuth Distance (km) Brightness Sun altitude
Rises 23:29:36 0° 16° (NNE) 2,616 10.3 -15.4°
Reaches altitude 10° 23:31:43 10° 18° (NNE) 1,721 9.4 -15.1°
Maximum altitude 23:35:26 76° 104° (ESE) 519 6.8 -14.7°
Drops below altitude 10° 23:39:04 10° 191° (S) 1,683 9.4 -14.3°
Sets 23:41:06 0° 193° (SSW) 2,551 10.3 -14.0°
